| time (UTC) | temp F | wind direction | speed MPH | gust MPH | rain 1hr in | rain 24hr in | rain mn in | humidity % | barometer mb |
| 20260504081559 | 53 | 194 | 2.0 | 3.0 | 0.00 | 0.00 | 0.00 | 89 | 1013.4 |
| 20260504081036 | 53 | 194 | 1.0 | 3.0 | 0.00 | 0.00 | 0.00 | 89 | 1013.4 |
| 20260504080537 | 53 | 180 | 2.0 | 4.0 | 0.00 | 0.00 | 0.00 | 89 | 1013.5 |
| 20260504060106 | 54 | 181 | 2.0 | 5.0 | 0.00 | 0.00 | 0.00 | 89 | 1013.4 |
| 20260504050538 | 53 | 219 | 2.0 | 6.0 | 0.00 | 0.00 | 0.00 | 88 | 1013.2 |
| 20260504050111 | 53 | 211 | 3.0 | 6.0 | 0.00 | 0.00 | 0.00 | 88 | 1013.0 |
| 20260504045541 | 54 | 208 | 2.0 | 5.0 | 0.00 | 0.00 | 0.00 | 89 | 1013.1 |
| 20260504045044 | 54 | 240 | 3.0 | 6.0 | 0.00 | 0.00 | 0.00 | 88 | 1013.0 |
| 20260504044551 | 54 | 215 | 3.0 | 6.0 | 0.00 | 0.00 | 0.00 | 88 | 1013.0 |
| 20260504044038 | 54 | 209 | 3.0 | 6.0 | 0.00 | 0.00 | 0.00 | 88 | 1012.9 |
| 20260504043538 | 54 | 217 | 2.0 | 6.0 | 0.00 | 0.00 | 0.00 | 88 | 1013.0 |
| 20260504043047 | 54 | 234 | 3.0 | 6.0 | 0.00 | 0.00 | 0.00 | 88 | 1012.9 |
| 20260504042537 | 54 | 221 | 2.0 | 8.0 | 0.00 | 0.00 | 0.00 | 88 | 1012.8 |
| 20260504042039 | 54 | 244 | 3.0 | 8.0 | 0.00 | 0.00 | 0.00 | 88 | 1012.8 |
| 20260504041550 | 54 | 237 | 4.0 | 8.0 | 0.00 | 0.00 | 0.00 | 88 | 1012.8 |
| 20260504041038 | 54 | 217 | 4.0 | 7.0 | 0.00 | 0.00 | 0.00 | 87 | 1012.8 |
| 20260504040538 | 55 | 219 | 2.0 | 7.0 | 0.00 | 0.00 | 0.00 | 87 | 1012.8 |
| 20260504040053 | 55 | 227 | 3.0 | 7.0 | 0.00 | 0.00 | 0.00 | 87 | 1012.8 |
| 20260504035538 | 55 | 247 | 3.0 | 7.0 | 0.00 | 0.00 | 0.00 | 87 | 1012.7 |
| 20260504035038 | 55 | 220 | 4.0 | 7.0 | 0.00 | 0.00 | 0.00 | 87 | 1012.5 |
| 20260504034551 | 55 | 231 | 4.0 | 6.0 | 0.00 | 0.00 | 0.00 | 87 | 1012.4 |
| 20260504034038 | 55 | 235 | 3.0 | 7.0 | 0.00 | 0.00 | 0.00 | 86 | 1012.3 |
| 20260504033538 | 54 | 218 | 3.0 | 11.0 | 0.00 | 0.00 | 0.00 | 86 | 1012.3 |
| 20260504033056 | 54 | 228 | 5.0 | 11.0 | 0.00 | 0.00 | 0.00 | 85 | 1012.3 |
| 20260504032538 | 54 | 205 | 5.0 | 11.0 | 0.00 | 0.00 | 0.00 | 85 | 1012.3 |
| 20260504032042 | 54 | 219 | 5.0 | 11.0 | 0.00 | 0.00 | 0.00 | 84 | 1012.2 |
| 20260504031546 | 54 | 208 | 6.0 | 11.0 | 0.00 | 0.00 | 0.00 | 84 | 1012.2 |
| 20260504031038 | 55 | 184 | 5.0 | 11.0 | 0.00 | 0.00 | 0.00 | 84 | 1012.1 |
| 20260504030539 | 55 | 213 | 5.0 | 9.0 | 0.00 | 0.00 | 0.00 | 84 | 1012.2 |
| 20260504030051 | 55 | 201 | 4.0 | 7.0 | 0.00 | 0.00 | 0.00 | 84 | 1012.1 |
| 20260504025539 | 55 | 237 | 4.0 | 9.0 | 0.00 | 0.00 | 0.00 | 83 | 1012.0 |
| 20260504025039 | 55 | 223 | 5.0 | 13.0 | 0.00 | 0.00 | 0.00 | 83 | 1012.0 |
| 20260504024550 | 55 | 213 | 5.0 | 13.0 | 0.00 | 0.00 | 0.00 | 83 | 1012.0 |
| 20260504024037 | 55 | 204 | 6.0 | 10.0 | 0.00 | 0.00 | 0.00 | 83 | 1011.9 |
| 20260504023539 | 56 | 173 | 5.0 | 9.0 | 0.00 | 0.00 | 0.00 | 83 | 1012.0 |
| 20260504023054 | 56 | 190 | 4.0 | 9.0 | 0.00 | 0.00 | 0.00 | 82 | 1012.0 |
| 20260504022539 | 56 | 225 | 5.0 | 9.0 | 0.00 | 0.00 | 0.00 | 82 | 1012.1 |
| 20260504022037 | 56 | 207 | 4.0 | 9.0 | 0.00 | 0.00 | 0.00 | 82 | 1012.0 |
| 20260504021551 | 56 | 220 | 3.0 | 9.0 | 0.00 | 0.00 | 0.00 | 82 | 1011.9 |
| 20260504021040 | 56 | 226 | 4.0 | 9.0 | 0.00 | 0.00 | 0.00 | 81 | 1011.9 |
| 20260504020538 | 56 | 227 | 5.0 | 9.0 | 0.00 | 0.00 | 0.00 | 81 | 1011.9 |
| 20260504020052 | 57 | 233 | 3.0 | 9.0 | 0.00 | 0.00 | 0.00 | 80 | 1011.9 |
| 20260504015538 | 57 | 211 | 4.0 | 9.0 | 0.00 | 0.00 | 0.00 | 80 | 1011.9 |
| 20260504015038 | 57 | 190 | 5.0 | 10.0 | 0.00 | 0.00 | 0.00 | 81 | 1012.0 |
| 20260504014554 | 57 | 207 | 6.0 | 10.0 | 0.00 | 0.00 | 0.00 | 81 | 1011.9 |
| 20260504014041 | 57 | 237 | 4.0 | 9.0 | 0.00 | 0.00 | 0.00 | 81 | 1011.9 |
| 20260504013538 | 58 | 238 | 4.0 | 9.0 | 0.00 | 0.00 | 0.00 | 82 | 1012.0 |
| 20260504013048 | 58 | 211 | 4.0 | 8.0 | 0.00 | 0.00 | 0.00 | 82 | 1012.1 |
| 20260504012538 | 57 | 225 | 4.0 | 8.0 | 0.00 | 0.00 | 0.00 | 82 | 1012.1 |
| 20260504012038 | 57 | 252 | 5.0 | 8.0 | 0.00 | 0.00 | 0.00 | 81 | 1012.2 |
| 20260504011549 | 57 | 229 | 4.0 | 9.0 | 0.00 | 0.00 | 0.00 | 82 | 1012.2 |
| 20260504011037 | 58 | 227 | 4.0 | 10.0 | 0.00 | 0.00 | 0.00 | 82 | 1012.2 |
| 20260504010537 | 58 | 242 | 5.0 | 10.0 | 0.00 | 0.00 | 0.00 | 82 | 1012.1 |
| 20260504010107 | 58 | 216 | 5.0 | 9.0 | 0.00 | 0.00 | 0.00 | 81 | 1012.1 |
| 20260504005538 | 58 | 210 | 5.0 | 9.0 | 0.00 | 0.00 | 0.00 | 80 | 1012.0 |
| 20260504005039 | 58 | 232 | 5.0 | 9.0 | 0.00 | 0.00 | 0.00 | 80 | 1012.0 |
| 20260504004549 | 58 | 238 | 5.0 | 10.0 | 0.00 | 0.00 | 0.00 | 80 | 1012.0 |
| 20260504004037 | 59 | 190 | 5.0 | 10.0 | 0.00 | 0.00 | 0.00 | 79 | 1012.1 |
| 20260504003538 | 59 | 244 | 4.0 | 10.0 | 0.00 | 0.00 | 0.00 | 79 | 1012.0 |
| 20260504003047 | 59 | 240 | 5.0 | 11.0 | 0.00 | 0.00 | 0.00 | 79 | 1011.9 |
| 20260504002538 | 59 | 225 | 6.0 | 11.0 | 0.00 | 0.00 | 0.00 | 79 | 1011.9 |
| 20260504002038 | 59 | 211 | 5.0 | 9.0 | 0.00 | 0.00 | 0.00 | 78 | 1011.8 |
| 20260504001559 | 60 | 216 | 4.0 | 11.0 | 0.00 | 0.00 | 0.00 | 77 | 1011.8 |
| 20260504001040 | 59 | 238 | 5.0 | 11.0 | 0.00 | 0.00 | 0.00 | 78 | 1011.8 |
| 20260504000538 | 60 | 233 | 5.0 | 10.0 | 0.00 | 0.00 | 0.00 | 77 | 1011.7 |
| 20260504000056 | 59 | 237 | 6.0 | 11.0 | 0.00 | 0.00 | 0.00 | 78 | 1011.7 |
| 20260503235542 | 60 | 255 | 5.0 | 11.0 | 0.00 | 0.00 | 0.00 | 76 | 1011.6 |
| 20260503235037 | 60 | 233 | 5.0 | 10.0 | 0.00 | 0.00 | 0.00 | 77 | 1011.6 |
| 20260503234539 | 60 | 211 | 5.0 | 10.0 | 0.00 | 0.00 | 0.00 | 76 | 1011.6 |
| 20260503234038 | 60 | 198 | 4.0 | 10.0 | 0.00 | 0.00 | 0.00 | 78 | 1011.6 |
| 20260503233538 | 59 | 225 | 5.0 | 12.0 | 0.00 | 0.00 | 0.00 | 77 | 1011.7 |
| 20260503233052 | 59 | 223 | 7.0 | 12.0 | 0.00 | 0.00 | 0.00 | 77 | 1011.7 |
| 20260503232537 | 59 | 211 | 6.0 | 10.0 | 0.00 | 0.00 | 0.00 | 77 | 1011.7 |
| 20260503232037 | 58 | 217 | 5.0 | 10.0 | 0.00 | 0.00 | 0.00 | 78 | 1011.7 |
| 20260503231545 | 58 | 208 | 5.0 | 10.0 | 0.00 | 0.00 | 0.00 | 77 | 1011.7 |
| 20260503231039 | 59 | 228 | 6.0 | 11.0 | 0.00 | 0.00 | 0.00 | 76 | 1011.6 |
| 20260503230539 | 59 | 261 | 5.0 | 11.0 | 0.00 | 0.00 | 0.00 | 77 | 1011.6 |
| 20260503230044 | 60 | 212 | 6.0 | 11.0 | 0.00 | 0.00 | 0.00 | 76 | 1011.7 |
| 20260503225537 | 59 | 215 | 6.0 | 11.0 | 0.00 | 0.00 | 0.00 | 78 | 1011.7 |
| 20260503225037 | 59 | 229 | 6.0 | 11.0 | 0.00 | 0.00 | 0.00 | 77 | 1011.8 |
| 20260503224545 | 59 | 216 | 5.0 | 10.0 | 0.00 | 0.00 | 0.00 | 76 | 1011.7 |
| 20260503224037 | 59 | 217 | 5.0 | 10.0 | 0.00 | 0.00 | 0.00 | 77 | 1011.8 |
| 20260503223537 | 59 | 216 | 5.0 | 9.0 | 0.00 | 0.00 | 0.00 | 78 | 1011.8 |
| 20260503223041 | 59 | 203 | 5.0 | 10.0 | 0.00 | 0.00 | 0.00 | 77 | 1011.8 |
| 20260503222537 | 59 | 208 | 5.0 | 10.0 | 0.00 | 0.00 | 0.00 | 78 | 1011.9 |
| 20260503222038 | 59 | 200 | 6.0 | 11.0 | 0.00 | 0.00 | 0.00 | 78 | 1011.8 |
| 20260503221547 | 59 | 242 | 5.0 | 11.0 | 0.00 | 0.00 | 0.00 | 79 | 1011.8 |
| 20260503221038 | 59 | 248 | 5.0 | 11.0 | 0.00 | 0.00 | 0.00 | 79 | 1011.7 |
| 20260503220538 | 59 | 228 | 6.0 | 12.0 | 0.00 | 0.00 | 0.00 | 78 | 1011.8 |
| 20260503220057 | 60 | 265 | 5.0 | 12.0 | 0.00 | 0.00 | 0.00 | 79 | 1011.8 |
| 20260503215537 | 58 | 218 | 5.0 | 11.0 | 0.00 | 0.00 | 0.00 | 80 | 1011.8 |
| 20260503215037 | 60 | 198 | 5.0 | 11.0 | 0.00 | 0.00 | 0.00 | 79 | 1011.9 |
| 20260503214544 | 59 | 244 | 6.0 | 11.0 | 0.00 | 0.00 | 0.00 | 81 | 1011.9 |
| 20260503214037 | 59 | 219 | 4.0 | 9.0 | 0.00 | 0.00 | 0.00 | 79 | 1011.9 |
| 20260503213539 | 59 | 232 | 5.0 | 10.0 | 0.00 | 0.00 | 0.00 | 78 | 1011.8 |
| 20260503213048 | 59 | 228 | 6.0 | 10.0 | 0.00 | 0.00 | 0.00 | 80 | 1011.8 |
| 20260503212537 | 58 | 240 | 6.0 | 10.0 | 0.00 | 0.00 | 0.00 | 79 | 1011.8 |
| 20260503212038 | 59 | 231 | 5.0 | 10.0 | 0.00 | 0.00 | 0.00 | 79 | 1011.8 |
| 20260503211543 | 59 | 253 | 5.0 | 10.0 | 0.00 | 0.00 | 0.00 | 80 | 1011.8 |
| 20260503211038 | 59 | 255 | 6.0 | 10.0 | 0.00 | 0.00 | 0.00 | 78 | 1011.9 |
| 20260503210537 | 59 | 167 | 5.0 | 10.0 | 0.00 | 0.00 | 0.00 | 78 | 1011.8 |
| 20260503210049 | 60 | 200 | 5.0 | 10.0 | 0.00 | 0.00 | 0.00 | 78 | 1011.8 |
| 20260503205537 | 59 | 228 | 6.0 | 10.0 | 0.00 | 0.00 | 0.00 | 79 | 1011.7 |
| 20260503205038 | 59 | 232 | 5.0 | 10.0 | 0.00 | 0.00 | 0.00 | 79 | 1011.7 |
| 20260503204601 | 59 | 225 | 5.0 | 10.0 | 0.00 | 0.00 | 0.00 | 78 | 1011.7 |
| 20260503204037 | 59 | 229 | 5.0 | 10.0 | 0.00 | 0.00 | 0.00 | 77 | 1011.7 |
| 20260503203536 | 59 | 236 | 5.0 | 10.0 | 0.00 | 0.00 | 0.00 | 77 | 1011.8 |
| 20260503203054 | 58 | 206 | 5.0 | 10.0 | 0.00 | 0.00 | 0.00 | 77 | 1011.8 |
| 20260503202538 | 58 | 221 | 5.0 | 8.0 | 0.00 | 0.00 | 0.00 | 77 | 1011.9 |
| 20260503202037 | 58 | 190 | 5.0 | 7.0 | 0.00 | 0.00 | 0.00 | 78 | 1011.9 |
| 20260503201545 | 58 | 210 | 4.0 | 7.0 | 0.00 | 0.00 | 0.00 | 79 | 1011.9 |
| 20260503201038 | 58 | 252 | 3.0 | 7.0 | 0.00 | 0.00 | 0.00 | 79 | 1012.0 |
| 20260503200537 | 58 | 215 | 3.0 | 7.0 | 0.00 | 0.00 | 0.00 | 80 | 1012.1 |
| 20260503200046 | 58 | 236 | 3.0 | 6.0 | 0.00 | 0.00 | 0.00 | 81 | 1012.1 |
| 20260503195539 | 58 | 227 | 3.0 | 6.0 | 0.00 | 0.00 | 0.00 | 80 | 1012.1 |
| 20260503195037 | 58 | 215 | 3.0 | 6.0 | 0.00 | 0.00 | 0.00 | 80 | 1012.1 |
| 20260503194545 | 58 | 225 | 4.0 | 6.0 | 0.00 | 0.00 | 0.00 | 79 | 1012.1 |
| 20260503194037 | 58 | 235 | 4.0 | 8.0 | 0.00 | 0.00 | 0.00 | 80 | 1012.1 |
| 20260503193537 | 58 | 211 | 4.0 | 8.0 | 0.00 | 0.00 | 0.00 | 81 | 1012.2 |
| 20260503193047 | 58 | 196 | 4.0 | 11.0 | 0.00 | 0.00 | 0.00 | 81 | 1012.1 |
| 20260503192537 | 57 | 220 | 4.0 | 11.0 | 0.00 | 0.00 | 0.00 | 83 | 1012.1 |
| 20260503192037 | 57 | 178 | 5.0 | 10.0 | 0.00 | 0.00 | 0.00 | 82 | 1012.2 |
| 20260503191548 | 57 | 209 | 3.0 | 7.0 | 0.00 | 0.00 | 0.00 | 82 | 1012.2 |
| 20260503191037 | 56 | 220 | 4.0 | 7.0 | 0.00 | 0.00 | 0.00 | 83 | 1012.2 |
| 20260503190537 | 57 | 219 | 3.0 | 7.0 | 0.00 | 0.00 | 0.00 | 83 | 1012.1 |
| 20260503190057 | 57 | 193 | 4.0 | 7.0 | 0.00 | 0.00 | 0.00 | 83 | 1012.1 |
| 20260503185537 | 57 | 223 | 3.0 | 7.0 | 0.00 | 0.00 | 0.00 | 83 | 1012.1 |
| 20260503185036 | 57 | 194 | 4.0 | 7.0 | 0.00 | 0.00 | 0.00 | 83 | 1012.2 |
| 20260503184546 | 57 | 232 | 4.0 | 7.0 | 0.00 | 0.00 | 0.00 | 84 | 1012.1 |
| 20260503184037 | 57 | 243 | 4.0 | 7.0 | 0.00 | 0.00 | 0.00 | 84 | 1012.2 |
| 20260503183537 | 57 | 234 | 4.0 | 7.0 | 0.00 | 0.00 | 0.00 | 84 | 1012.2 |
| 20260503183051 | 57 | 230 | 3.0 | 7.0 | 0.00 | 0.00 | 0.00 | 84 | 1012.2 |
| 20260503182537 | 57 | 244 | 4.0 | 8.0 | 0.00 | 0.00 | 0.00 | 83 | 1012.1 |
| 20260503182037 | 58 | 191 | 3.0 | 8.0 | 0.00 | 0.00 | 0.00 | 84 | 1012.1 |
| 20260503181544 | 57 | 248 | 3.0 | 8.0 | 0.00 | 0.00 | 0.00 | 85 | 1012.1 |
| 20260503181037 | 57 | 235 | 3.0 | 7.0 | 0.00 | 0.00 | 0.00 | 85 | 1012.1 |
| 20260503180537 | 57 | 229 | 2.0 | 6.0 | 0.00 | 0.00 | 0.00 | 85 | 1012.1 |
| 20260503180056 | 57 | 229 | 2.0 | 6.0 | 0.00 | 0.00 | 0.00 | 85 | 1012.0 |
| 20260503175537 | 56 | 234 | 2.0 | 5.0 | 0.00 | 0.00 | 0.00 | 87 | 1012.1 |
| 20260503175038 | 56 | 251 | 2.0 | 5.0 | 0.00 | 0.00 | 0.00 | 86 | 1012.0 |
| 20260503174549 | 56 | 240 | 2.0 | 5.0 | 0.00 | 0.00 | 0.00 | 86 | 1012.0 |
| 20260503174039 | 56 | 240 | 2.0 | 4.0 | 0.00 | 0.00 | 0.00 | 86 | 1012.0 |
| 20260503173538 | 55 | 253 | 2.0 | 4.0 | 0.00 | 0.00 | 0.00 | 87 | 1011.9 |
| 20260503173134 | 55 | 252 | 1.0 | 4.0 | 0.00 | 0.00 | 0.00 | 87 | 1011.9 |
| 20260503172538 | 55 | 286 | 1.0 | 4.0 | 0.00 | 0.00 | 0.00 | 88 | 1011.8 |
| 20260503172036 | 55 | 240 | 2.0 | 4.0 | 0.00 | 0.00 | 0.00 | 88 | 1011.9 |
| 20260503171554 | 55 | 199 | 2.0 | 4.0 | 0.00 | 0.00 | 0.00 | 89 | 1011.8 |
| 20260503171036 | 55 | 227 | 2.0 | 4.0 | 0.00 | 0.00 | 0.00 | 90 | 1011.8 |
| 20260503170537 | 54 | 234 | 2.0 | 5.0 | 0.00 | 0.00 | 0.00 | 90 | 1011.8 |
| 20260503150537 | 53 | 202 | 1.0 | 5.0 | 0.00 | 0.00 | 0.00 | 89 | 1011.1 |
| 20260503131036 | 53 | 234 | 1.0 | 3.0 | 0.00 | 0.00 | 0.00 | 89 | 1009.8 |
| 20260503130536 | 53 | 232 | 1.0 | 3.0 | 0.00 | 0.00 | 0.00 | 89 | 1009.7 |
| 20260503110536 | 53 | 277 | 1.0 | 3.0 | 0.00 | 0.00 | 0.00 | 89 | 1009.8 |